Weather in Cherdantsevo

Russia / Sverdlovsk Oblast     56°36′01″N   60°56′46″E
temp.,
°C
wind,
m/s
gust,
m/s
humid.,
%
clouds,
%
prec.,
mm/h
press.,
hPa
HPBL,
m
26 february, fri
fri2623:00−23w239662 0.0 102945
02:00−25w22930 0.0 102820
05:00−26w12920 0.0 102919
08:00−26ssw11920 0.0 102819
11:00−19s23860 0.0 1028238
14:00−16sse35860 0.0 1027417
17:00−17sse359124 0.0 1026357
20:00−24sse369924 0.0 1026103
27 february, sat
sat2723:00−26sse3510036 0.0 1025112
02:00−28sse389833 0.0 1023138
05:00−26sse4109729 0.0 1022254
08:00−26sse5119692 0.0 1020297
11:00−23se5119696 0.0 1018347
14:00−21se51195100 0.0 1016462
17:00−19se61196100 0.5 1014605
20:00−19ese51196100 0.7 1013562
28 february, sun
sun2823:00−17e51195100 1.3 1011499
02:00−14e41095100 0.5 1009522
05:00−13e4995100 1.1 1008501
08:00−13e4995100 0.6 1008480
11:00−12ene4893100 1.0 1008573
14:00−11ene5892100 0.4 1008674
17:00−13ne5893100 0.9 1009582
20:00−16ne4995100 0.4 1010450
1 march, mon
mon123:00−17nne3896100 0.9 1012381
02:00−18nne3796100 0.3 1013352
05:00−19nne3796100 0.7 1015363
08:00−20n3797100 0.3 1016324
11:00−19n3594100 0.4 1018341
14:00−16nnw3491100 0.0 1018446
17:00−15nnw2590100 0.1 1019474
20:00−20nw229744 0.0 102020
2 march, tue
tue223:00−20w239835 0.0 102127
02:00−21w23960 0.0 102064
05:00−21wsw34940 0.0 101983
08:00−20wsw38937 0.0 1017177
11:00−13wsw498548 0.0 1014386
14:00−10wsw498096 0.0 1012574
17:00−9sw4118298 0.0 1010565
20:00−10sw41285100 0.0 1008574